Weather History for Trail Valley, NT

Change the Weather History Date:

Wednesday, January 16, 2013

  Actual Average Record
Temperature  
Mean Temperature -18 °F -  
Max Temperature -10 °F - - ()
Min Temperature -26 °F - - ()
Degree Days  
Heating Degree Days 83    
Moisture  
Dew Point -26 °F    
Average Humidity 74    
Maximum Humidity 81    
Minimum Humidity 60    
Precipitation  
Precipitation 0.00 in - - ()
Sea Level Pressure  
Sea Level Pressure 30.25 in    
Wind  
Wind Speed 2 mph ()    
Max Wind Speed 6 mph    
Max Gust Speed -    
T = Trace of Precipitation, MM = Missing Value Source: Averaged Metar Reports

Daily Weather History Graph

Daily Weather History Graph

Search for Another Location

Airport:

Trip Planner

Search our weather history database for the weather conditions in past years. The results will help you decide how hot, cold, wet, or windy it might be!

Date:

Astronomy

Jan. 16, 2013 Rise Set
Actual Time 12:39 PM MST 3:29 PM MST
Civil Twilight 10:51 AM MST 5:17 PM MST
Nautical Twilight 9:29 AM MST 6:39 PM MST
Astronomical Twilight 8:18 AM MST 7:49 PM MST
Moon 11:24 AM MST (1/16) 12:05 AM MST (1/16)
Length of Visible Light 6h 25m
Length of Day
2h 49m
Waxing Crescent, 29% of the Moon is Illuminated
Jan 16
Waxing Crescent
Jan 18
First Quarter
Jan 26
Full
Feb 3
Last Quarter
Feb 10
New

Hourly Weather History & Observations

Time (MST) Temp. Windchill Dew Point Humidity Pressure Visibility Wind Dir Wind Speed Gust Speed Precip Events Conditions
12:00 AM -11.0 °F -20.4 °F -15.3 °F 81% 30.16 in - North 3.5 mph - N/A   Unknown
1:00 AM -12.3 °F -21.9 °F -16.6 °F 81% 30.17 in - North 3.5 mph - N/A   Unknown
2:00 AM -13.2 °F - -17.9 °F 80% 30.19 in - NNW 2.3 mph - N/A   Unknown
3:00 AM -13.5 °F -23.3 °F -18.2 °F 80% 30.20 in - NW 3.5 mph - N/A   Unknown
4:00 AM -13.2 °F -25.3 °F -17.9 °F 80% 30.21 in - North 4.6 mph - N/A   Unknown
5:00 AM -14 °F - -19 °F 67% 30.23 in - Calm Calm - -  
5:00 AM -14.3 °F - -18.9 °F 79% 30.23 in - Calm Calm - N/A   Unknown
6:00 AM -14.6 °F -24.5 °F -19.3 °F 79% 30.23 in - WNW 3.5 mph - N/A   Unknown
7:00 AM -17.1 °F -27.4 °F -22.2 °F 78% 30.24 in - NW 3.5 mph - N/A   Unknown
8:00 AM -17.7 °F - -22.7 °F 78% 30.25 in - Calm Calm - N/A   Unknown
9:00 AM -19.8 °F - -25.1 °F 77% 30.26 in - Calm Calm - N/A   Unknown
10:00 AM -22.2 °F - -27.8 °F 75% 30.25 in - WNW 2.3 mph - N/A   Unknown
11:00 AM -25 °F - -31 °F 61% 30.26 in - NNE 1.2 mph - -  
11:00 AM -25.1 °F - -30.6 °F 75% 30.26 in - NNE 1.2 mph - N/A   Unknown
12:00 PM -24.0 °F - -29.7 °F 74% 30.27 in - NNE 1.2 mph - N/A   Unknown
1:00 PM -22.9 °F - -28.7 °F 74% 30.27 in - Calm Calm - N/A   Unknown
2:00 PM -23.4 °F -34.6 °F -29.2 °F 74% 30.27 in - WNW 3.5 mph - N/A   Unknown
3:00 PM -21.6 °F - -27.4 °F 75% 30.28 in - North 2.3 mph - N/A   Unknown
4:00 PM -23.3 °F - -29.0 °F 74% 30.29 in - NNW 2.3 mph - N/A   Unknown
5:00 PM -24 °F - -30 °F 60% 30.28 in - ENE 1.2 mph - -  
5:00 PM -24.0 °F - -29.7 °F 74% 30.28 in - ENE 1.2 mph - N/A   Unknown
6:00 PM -23.6 °F - -29.6 °F 74% 30.27 in - Calm Calm - N/A   Unknown
7:00 PM -24.3 °F -35.7 °F -30.3 °F 74% 30.27 in - WNW 3.5 mph - N/A   Unknown
8:00 PM -24.2 °F - -30.1 °F 74% 30.27 in - Calm Calm - N/A   Unknown
9:00 PM -26.0 °F -42.4 °F -31.9 °F 73% 30.27 in - NW 5.8 mph - N/A   Unknown
10:00 PM -25.1 °F -36.5 °F -31.0 °F 74% 30.28 in - West 3.5 mph - N/A   Unknown
11:00 PM -23 °F - -29 °F 61% 30.28 in - WSW 3.5 mph - -  
11:00 PM -22.9 °F -34.0 °F -28.7 °F 74% 30.28 in - WSW 3.5 mph - N/A   Unknown